Salinas, CA

7:13 PM PST on January 21, 2017 (GMT -0800)
Salinas

Weather History for KSNS - December, 2012

Change the Weather History Date:

Wednesday, December 26, 2012

  Actual Average Record
Temperature  
Mean Temperature 47 °F 50 °F  
Max Temperature 53 °F 61 °F 80 °F (1980)
Min Temperature 41 °F 40 °F 27 °F (1954)
Degree Days  
Heating Degree Days 18 15  
Month to date heating degree days 357 365  
Since 1 July heating degree days 789 983  
Cooling Degree Days 0 0  
Month to date cooling degree days 0 0  
Year to date cooling degree days 110 130  
Moisture  
Dew Point 45 °F    
Average Humidity 87    
Maximum Humidity 100    
Minimum Humidity 74    
Precipitation  
Precipitation 0.27 in 0.07 in 1.00 in (1964)
Month to date precipitation 2.89 1.58  
Year to date precipitation 13.33 12.48  
Since 1 July precipitation 6.21  
Sea Level Pressure  
Sea Level Pressure 30.02 in    
Wind  
Wind Speed 5 mph (WSW)    
Max Wind Speed 20 mph    
Max Gust Speed 38 mph    
Visibility 8 miles    
Events Rain    
T = Trace of Precipitation, MM = Missing Value Source: NWS Daily Summary

Daily Weather History Graph

Daily Weather History Graph

Search for Another Location

Airport or City:

Trip Planner

Search our weather history database for the weather conditions in past years. The results will help you decide how hot, cold, wet, or windy it might be!

Date:

Astronomy

Dec. 26, 2012 Rise Set
Actual Time 7:17 AM PST 4:57 PM PST
Civil Twilight 6:48 AM PST 5:26 PM PST
Nautical Twilight 6:16 AM PST 5:58 PM PST
Astronomical Twilight 5:44 AM PST 6:30 PM PST
Moon 3:54 PM PST (12/26) 5:45 AM PST (12/26)
Length of Visible Light 10h 37m
Length of Day
9h 39m
Waxing Gibbous, 98% of the Moon is Illuminated
Dec 26
Waxing Gibbous
Dec 28
Full
Jan 4
Last Quarter
Jan 11
New
Jan 18
First Quarter

Hourly Weather History & Observations

Time (PST) Temp. Windchill Dew Point Humidity Pressure Visibility Wind Dir Wind Speed Gust Speed Precip Events Conditions
12:13 AM 46.4 °F 42.9 °F 44.6 °F 93% 29.92 in 10.0 mi East 6.9 mph - 0.00 in Rain Light Rain
12:53 AM 46.0 °F 42.5 °F 45.0 °F 96% 29.95 in 10.0 mi East 6.9 mph - 0.00 in   Mostly Cloudy
1:24 AM 46.4 °F 43.5 °F 44.6 °F 93% 29.91 in 10.0 mi East 5.8 mph - N/A   Mostly Cloudy
1:53 AM 46.9 °F - 45.0 °F 93% 29.95 in 8.0 mi Calm Calm - 0.01 in Rain Light Rain
2:03 AM 48.2 °F - 46.4 °F 93% 29.93 in 3.0 mi NW 3.5 mph - 0.04 in Rain Light Rain
2:19 AM 46.4 °F - 46.4 °F 100% 29.92 in 9.0 mi Calm Calm - 0.06 in Rain Light Rain
2:49 AM 46.4 °F - 46.4 °F 100% 29.94 in 5.0 mi Calm Calm - 0.09 in Rain Light Rain
2:53 AM 46.9 °F - 46.0 °F 97% 29.96 in 5.0 mi Calm Calm - 0.09 in Rain Light Rain
3:06 AM 46.4 °F - 44.6 °F 93% 29.93 in 10.0 mi Calm Calm - 0.00 in   Scattered Clouds
3:53 AM 46.0 °F - 44.1 °F 93% 29.96 in 10.0 mi Calm Calm - 0.01 in   Overcast
4:53 AM 46.0 °F - 44.1 °F 93% 29.96 in 10.0 mi Calm Calm - 0.00 in   Mostly Cloudy
5:53 AM 44.1 °F 42.5 °F 42.1 °F 93% 29.98 in 9.0 mi NNE 3.5 mph - N/A   Clear
6:53 AM 45.0 °F - 44.1 °F 97% 30.00 in 8.0 mi Calm Calm - 0.00 in Rain Light Rain
7:53 AM 46.0 °F - 44.1 °F 93% 30.02 in 2.5 mi Calm Calm - 0.04 in Rain Rain
8:01 AM 46.4 °F - 44.6 °F 93% 30.00 in 3.0 mi Calm Calm - 0.01 in Rain Light Rain
8:20 AM 46.4 °F - 44.6 °F 93% 30.00 in 9.0 mi Calm Calm - 0.01 in Rain Light Rain
8:53 AM 46.9 °F - 46.0 °F 97% 30.05 in 9.0 mi Calm Calm - 0.01 in   Overcast
9:01 AM 48.2 °F - 46.4 °F 93% 30.02 in 10.0 mi Calm Calm - N/A   Mostly Cloudy
9:41 AM 50.0 °F - 46.4 °F 87% 30.04 in 2.5 mi Calm Calm - 0.02 in Rain Rain
9:48 AM 50.0 °F - 46.4 °F 87% 30.04 in 6.0 mi Calm Calm - 0.02 in Rain Light Rain
9:53 AM 50.0 °F - 46.0 °F 86% 30.07 in 7.0 mi South 3.5 mph - 0.02 in Rain Light Rain
10:53 AM 51.1 °F - 46.9 °F 86% 30.07 in 10.0 mi SSW 5.8 mph - 0.00 in   Overcast
11:05 AM 51.8 °F - 48.2 °F 88% 30.04 in 10.0 mi Calm Calm - 0.00 in Rain Light Rain
11:53 AM 51.1 °F - 46.0 °F 83% 30.06 in 5.0 mi West 6.9 mph - 0.02 in Rain Light Rain
12:33 PM 51.8 °F - 46.4 °F 82% 30.02 in 1.8 mi West 9.2 mph - 0.03 in Rain Heavy Rain
12:46 PM 48.2 °F - 44.6 °F 87% 30.02 in 3.0 mi West 10.4 mph - 0.06 in Rain Rain
12:53 PM 48.9 °F - 45.0 °F 86% 30.05 in 7.0 mi WSW 6.9 mph - 0.06 in Rain Light Rain
1:39 PM 51.8 °F - 46.4 °F 82% 30.01 in 10.0 mi SW 9.2 mph - 0.00 in Rain Light Rain
1:53 PM 52.0 °F - 46.0 °F 80% 30.04 in 10.0 mi West 15.0 mph 23.0 mph 0.00 in   Overcast
2:00 PM 51.8 °F - 44.6 °F 76% 30.01 in 10.0 mi West 12.7 mph - 0.00 in Rain Light Rain
2:53 PM 51.1 °F - 45.0 °F 80% 30.06 in 10.0 mi WSW 13.8 mph - 0.00 in   Mostly Cloudy
3:53 PM 52.0 °F - 45.0 °F 77% 30.06 in 10.0 mi West 12.7 mph 19.6 mph 0.01 in   Overcast
4:53 PM 51.1 °F - 44.1 °F 77% 30.07 in 10.0 mi West 13.8 mph - N/A   Mostly Cloudy
5:53 PM 50.0 °F - 44.1 °F 80% 30.09 in 10.0 mi West 9.2 mph - N/A   Partly Cloudy
6:53 PM 50.0 °F - 43.0 °F 77% 30.10 in 10.0 mi West 8.1 mph - N/A   Clear
7:53 PM 48.9 °F - 43.0 °F 80% 30.10 in 10.0 mi West 6.9 mph - N/A   Partly Cloudy
8:53 PM 48.0 °F - 43.0 °F 83% 30.11 in 10.0 mi West 5.8 mph - N/A   Clear
9:53 PM 45.0 °F - 42.1 °F 90% 30.13 in 9.0 mi Calm Calm - N/A   Clear
10:53 PM 43.0 °F - 41.0 °F 93% 30.14 in 7.0 mi Calm Calm - N/A   Partly Cloudy
11:53 PM 42.1 °F - 39.9 °F 92% 30.14 in 9.0 mi Calm Calm - N/A   Partly Cloudy